Regional Weather Roundup
Issued by NWS

Home | Current Version | Previous Version | Text Only | Print | Product List | Glossary On
Versions: 1 2 3 4 5 6 7 8 9 10 11 12 13 14 15 16 17 18 19 20 21 22 23 24 25 26 27 28
000
ASUS46 KSEW 262210
RWRWA

WASHINGTON REGIONAL WEATHER ROUNDUP
NATIONAL WEATHER SERVICE SEATTLE WA
300 PM PDT TUE SEP 26 2017

NOTE:"FAIR" INDICATES FEW OR NO CLOUDS BELOW 12,000 FEET WITH NO
SIGNIFICANT WEATHER AND/OR OBSTRUCTIONS TO VISIBILITY.

WAZ507-509-555>559-262300-
SEATTLE, TACOMA, EVERETT, AND VICINITY

CITY           SKY/WX    TMP DP  RH WIND       PRES   REMARKS
EVERETT        SUNNY     66  55  67 NW8       30.17F
BOEING FIELD   SUNNY     71  54  54 NW9       30.14F
RENTON         SUNNY     72  57  59 NW12      30.13F
SEATAC AIRPORT MOSUNNY   73  54  51 N9        30.15F
JBLM-MCCHORD   SUNNY     71  57  60 E8        30.15S
PUYALLUP       FAIR      73  57  56 VRB6      30.14F
BREMERTON      SUNNY     72  55  55 NE12      30.15F
JBLM-FT LEWIS  SUNNY     71  56  57 N8        30.13F
TACOMA NARROWS SUNNY     69  51  52 N7        30.14F
$$

WAZ001-503-506-510-514-515-262300-
NORTH INTERIOR

CITY           SKY/WX    TMP DP  RH WIND       PRES   REMARKS
BELLINGHAM     MOSUNNY   69  57  65 W8        30.17F
FRIDAY HARBOR  SUNNY     69  55  60 N12       30.19F
EASTSOUND      SUNNY     63  57  82 NW5       30.19F
PORT ANGELES   SUNNY     66  54  65 N6        30.20S
EDIZ HOOK      FAIR      60  55  83 CALM      30.19S
PORT TOWNSEND  FAIR      68  55  64 NW7       30.18S
NAS WHIDBEY    MOSUNNY   64  53  67 W7        30.22S
ARLINGTON      SUNNY     72  56  57 NW14      30.16S
BURLINGTON     SUNNY     68  55  64 NW14      30.17S
$$

WAZ020-022-039-040-504-511-512-262300-
SOUTHWEST INTERIOR

CITY           SKY/WX    TMP DP  RH WIND       PRES   REMARKS
SHELTON        SUNNY     76  55  48 VRB5      30.11F
OLYMPIA        SUNNY     72  54  53 NE9       30.14S
CHEHALIS       FAIR      75  57  53 VRB5      30.12F
KELSO          SUNNY     76  57  51 NW9       30.10F
VANCOUVER      SUNNY     76  57  51 VRB7      30.06F
SCAPPOOSE, OR  SUNNY     79  53  40 N7        30.07F
PORTLAND, OR   MOSUNNY   76  56  49 W13       30.07F
$$

WAZ021-516-517-262300-
WASHINGTON COAST

CITY           SKY/WX    TMP DP  RH WIND       PRES   REMARKS
FORKS          CLOUDY    67  59  75 SW6       30.17F
HOQUIAM        SUNNY     74  58  57 CALM      30.13F
ASTORIA, OR    SUNNY     70  60  70 NW12      30.10S
$$

WAZ019-023-024-040-567>569-262300-
CASCADE MOUNTAINS AND COLUMBIA GORGE

CITY           SKY/WX    TMP DP  RH WIND       PRES   REMARKS
STAMPEDE PASS  NOT AVBL
TROUTDALE, OR  SUNNY     78  56  46 VRB3      30.06F
HOOD RIVER, OR NOT AVBL
THE DALLES, OR SUNNY     78  51  38 N3        30.09F
$$

WAZ026-027-041>044-520-521-262300-
EAST SLOPES

CITY           SKY/WX    TMP DP  RH WIND       PRES   REMARKS
OMAK           SUNNY     75  46  35 S6        30.14S
WENATCHEE      SUNNY     75  43  31 VRB5      30.12F
ELLENSBURG     SUNNY     76  46  34 CALM      30.15F
YAKIMA         SUNNY     78  46  32 VRB5      30.14F
SUNNYSIDE ARPT CLEAR     73  52  47 CALM      30.13F
YAKIMA TC      FAIR      75  45  33 W8        30.11F
$$

WAZ028-034-035-262300-
COLUMBIA BASIN

CITY           SKY/WX    TMP DP  RH WIND       PRES   REMARKS
EPHRATA        SUNNY     75  42  30 SW5       30.13F
MOSES LAKE     SUNNY     75  44  33 VRB5      30.14F
PASCO          SUNNY     80  51  36 VRB6      30.12F
RICHLAND ARPT  CLEAR     79  50  35 N3        30.12F
HERMISTON, OR  SUNNY     77  49  37 CALM      30.11F
$$

WAZ036>038-262300-
NORTHEAST WASHINGTON

CITY           SKY/WX    TMP DP  RH WIND       PRES   REMARKS
SPOKANE GEIGER MOSUNNY   69  46  43 N3        30.18F
SPOKANE FELTS  PTSUNNY   71  46  40 CALM      30.17F
FAIRCHILD AFB  SUNNY     71  44  38 CALM      30.18F
COEURDALENE,ID PTSUNNY   71  44  37 S6        30.18F
DEER PARK      SUNNY     71  44  37 SW7       30.17F
$$

WAZ029>033-262300-
SOUTHEAST WASHINGTON

CITY           SKY/WX    TMP DP  RH WIND       PRES   REMARKS
PULLMAN        MOSUNNY   71  42  35 W6        30.19F
LEWISTON, ID   SUNNY     76  45  33 CALM      30.15S
WALLA WALLA    SUNNY     77  48  36 MISG      30.13
PENDLETON, OR  SUNNY     76  46  34 VRB6      30.13S
$$




USA.gov is the U.S. government's official web portal to all federal, state and local government web resources and services.